EW7239 Weather Reports


time (UTC)temp
C
wind
direction
speed
KPH
gust
KPH
rain 1hr
cm
rain 24hr
cm
rain mn
cm
humidity
%
barometer
mb
20260831014427 30 217 12.9 22.5 0.00 0.00 0.00 50 1010.3
20260831013919 30 211 12.9 22.5 0.00 0.00 0.00 49 1010.4
20260831013418 30 215 12.9 22.5 0.00 0.00 0.00 49 1010.4
20260831012918 30 219 14.5 27.4 0.00 0.00 0.00 49 1010.4
20260831012414 30 220 16.1 27.4 0.00 0.00 0.00 48 1010.4
20260831011914 30 221 16.1 22.5 0.00 0.00 0.00 48 1010.3
20260831011414 31 220 16.1 25.7 0.00 0.00 0.00 47 1010.3
20260831010911 31 216 16.1 25.7 0.00 0.00 0.00 47 1010.2
20260831010642 31 217 16.1 27.4 0.00 0.00 0.00 46 1010.2
20260831005909 31 220 16.1 27.4 0.00 0.00 0.00 46 1010.2
20260831005409 31 227 14.5 25.7 0.00 0.00 0.00 46 1010.3
20260831005142 31 232 16.1 25.7 0.00 0.00 0.00 46 1010.3
20260831004410 31 223 16.1 27.4 0.00 0.00 0.00 46 1010.2
20260831003910 31 197 14.5 27.4 0.00 0.00 0.00 46 1010.2
20260831003411 32 225 14.5 24.1 0.00 0.00 0.00 45 1010.2
20260831002910 32 216 16.1 30.6 0.00 0.00 0.00 44 1010.2
20260831002411 32 234 16.1 30.6 0.00 0.00 0.00 45 1010.3
20260831001909 32 231 14.5 27.4 0.00 0.00 0.00 45 1010.2
20260831001409 32 216 14.5 29.0 0.00 0.00 0.00 45 1010.2
20260831000909 32 226 16.1 29.0 0.00 0.00 0.00 45 1010.2
20260831000410 32 264 16.1 25.7 0.00 0.00 0.00 46 1010.2
20260830235909 32 228 17.7 25.7 0.00 0.00 0.00 46 1010.3
20260830235407 32 223 16.1 25.7 0.00 0.00 0.00 46 1010.3
20260830234907 32 221 14.5 25.7 0.00 0.00 0.00 45 1010.2
20260830234408 33 234 12.9 22.5 0.00 0.00 0.00 44 1010.2
20260830233909 33 242 14.5 29.0 0.00 0.00 0.00 44 1010.3
20260830233408 33 220 14.5 29.0 0.00 0.00 0.00 44 1010.3
20260830233140 33 214 14.5 27.4 0.00 0.00 0.00 42 1010.3
20260830232638 33 222 16.1 25.7 0.00 0.00 0.00 43 1010.3
20260830231907 33 217 14.5 25.7 0.00 0.00 0.00 43 1010.4
20260830230907 33 233 14.5 25.7 0.00 0.00 0.00 44 1010.3
20260830230408 33 227 14.5 25.7 0.00 0.00 0.00 43 1010.4
20260830225920 33 230 14.5 24.1 0.00 0.00 0.00 43 1010.4
20260830225408 33 241 16.1 30.6 0.00 0.00 0.00 44 1010.4
20260830224907 33 233 16.1 30.6 0.00 0.00 0.00 44 1010.4
20260830224406 33 211 14.5 24.1 0.00 0.00 0.00 44 1010.5
20260830223908 33 242 14.5 24.1 0.00 0.00 0.00 43 1010.6
20260830223403 33 222 14.5 25.7 0.00 0.00 0.00 46 1010.6
20260830222905 33 239 17.7 27.4 0.00 0.00 0.00 45 1010.6
20260830222402 33 219 17.7 27.4 0.00 0.00 0.00 45 1010.7
20260830221903 33 221 16.1 27.4 0.00 0.00 0.00 45 1010.8
20260830221401 33 205 14.5 27.4 0.00 0.00 0.00 43 1010.8
20260830220902 33 225 16.1 29.0 0.00 0.00 0.00 44 1010.9
20260830220402 33 223 17.7 29.0 0.00 0.00 0.00 44 1011.0
20260830220129 33 221 16.1 25.7 0.00 0.00 0.00 44 1011.0
20260830215357 34 226 16.1 32.2 0.00 0.00 0.00 43 1011.1
20260830214859 34 226 14.5 32.2 0.00 0.00 0.00 41 1011.2
20260830214354 34 232 14.5 29.0 0.00 0.00 0.00 42 1011.2
20260830213854 34 217 14.5 29.0 0.00 0.00 0.00 42 1011.3
20260830213625 34 223 14.5 30.6 0.00 0.00 0.00 42 1011.3
20260830213124 34 225 14.5 30.6 0.00 0.00 0.00 42 1011.3
20260830212351 35 250 14.5 30.6 0.00 0.00 0.00 42 1011.3
20260830211851 35 219 12.9 25.7 0.00 0.00 0.00 40 1011.4
20260830211351 35 237 14.5 25.7 0.00 0.00 0.00 39 1011.4
20260830210852 35 213 12.9 25.7 0.00 0.00 0.00 37 1011.4
20260830210351 35 223 12.9 22.5 0.00 0.00 0.00 37 1011.4
20260830210123 35 219 11.3 22.5 0.00 0.00 0.00 36 1011.5
20260830205352 35 217 11.3 24.1 0.00 0.00 0.00 37 1011.6
20260830204853 35 243 12.9 24.1 0.00 0.00 0.00 37 1011.7
20260830204351 35 229 11.3 19.3 0.00 0.00 0.00 36 1011.6
20260830203851 35 254 11.3 19.3 0.00 0.00 0.00 36 1011.6
20260830203351 35 249 9.7 19.3 0.00 0.00 0.00 37 1011.7
20260830202853 35 268 11.3 19.3 0.00 0.00 0.00 37 1011.7
20260830202351 35 221 11.3 19.3 0.00 0.00 0.00 37 1011.7
20260830201847 35 228 9.7 20.9 0.00 0.00 0.00 39 1011.7
20260830201348 35 225 9.7 20.9 0.00 0.00 0.00 40 1011.7
20260830200616 35 225 8.0 16.1 0.00 0.00 0.00 37 1011.8
20260830200115 35 235 8.0 12.9 0.00 0.00 0.00 37 1011.7
20260830195340 35 200 8.0 17.7 0.00 0.00 0.00 36 1011.7
20260830194839 35 241 8.0 17.7 0.00 0.00 0.00 36 1011.9
20260830194340 35 264 6.4 16.1 0.00 0.00 0.00 35 1011.9
20260830193612 35 235 6.4 14.5 0.00 0.00 0.00 33 1012.0
20260830192839 34 247 8.0 16.1 0.00 0.00 0.00 33 1012.0
20260830192340 34 225 9.7 16.1 0.00 0.00 0.00 34 1012.1
20260830191841 34 203 6.4 14.5 0.00 0.00 0.00 36 1012.1
20260830191338 33 215 4.8 11.3 0.00 0.00 0.00 38 1012.2
20260830190837 33 238 6.4 11.3 0.00 0.00 0.00 38 1012.3
20260830190351 33 237 6.4 11.3 0.00 0.00 0.00 38 1012.3
20260830185839 33 240 3.2 11.3 0.00 0.00 0.00 38 1012.5
20260830185338 33 223 4.8 11.3 0.00 0.00 0.00 38 1012.6
20260830184839 33 220 4.8 11.3 0.00 0.00 0.00 40 1012.6
20260830184338 33 205 4.8 11.3 0.00 0.00 0.00 41 1012.7
20260830183837 32 219 4.8 9.7 0.00 0.00 0.00 41 1012.7
20260830183336 32 219 3.2 9.7 0.00 0.00 0.00 42 1012.7
20260830182837 32 221 6.4 11.3 0.00 0.00 0.00 42 1012.8
20260830182336 32 221 4.8 11.3 0.00 0.00 0.00 44 1012.8
20260830181836 32 223 3.2 9.7 0.00 0.00 0.00 44 1012.8
20260830181337 32 222 4.8 9.7 0.00 0.00 0.00 43 1012.7
20260830180837 32 223 3.2 9.7 0.00 0.00 0.00 44 1012.8
20260830180333 32 225 4.8 9.7 0.00 0.00 0.00 45 1012.7
20260830175835 31 225 3.2 9.7 0.00 0.00 0.00 46 1012.7
20260830175332 31 211 3.2 8.0 0.00 0.00 0.00 47 1012.7
20260830174833 31 211 3.2 9.7 0.00 0.00 0.00 47 1012.8
20260830174329 31 211 3.2 9.7 0.00 0.00 0.00 48 1012.8
20260830173828 30 212 3.2 9.7 0.00 0.00 0.00 49 1012.9
20260830173328 30 212 3.2 9.7 0.00 0.00 0.00 50 1012.9
20260830172829 30 228 4.8 8.0 0.00 0.00 0.00 52 1013.0
20260830172328 30 228 3.2 8.0 0.00 0.00 0.00 52 1012.9
20260830171828 30 230 3.2 8.0 0.00 0.00 0.00 53 1012.8
20260830171556 29 230 3.2 9.7 0.00 0.00 0.00 53 1012.9
20260830170825 29 231 3.2 9.7 0.00 0.00 0.00 54 1012.9
20260830170323 29 231 1.6 8.0 0.00 0.00 0.00 55 1012.9
20260830165824 28 231 3.2 8.0 0.00 0.00 0.00 56 1012.9
20260830165323 28 231 3.2 8.0 0.00 0.00 0.00 58 1012.9
20260830164823 28 231 3.2 6.4 0.00 0.00 0.00 58 1012.9
20260830164321 28 230 1.6 6.4 0.00 0.00 0.00 59 1012.9
20260830164050 28 231 3.2 6.4 0.00 0.00 0.00 60 1013.0
20260830163320 28 230 1.6 6.4 0.00 0.00 0.00 60 1012.9
20260830162817 27 231 1.6 6.4 0.00 0.00 0.00 61 1012.9
20260830162316 27 231 1.6 6.4 0.00 0.00 0.00 63 1012.9
20260830161816 27 231 1.6 6.4 0.00 0.00 0.00 65 1013.0
20260830161328 26 231 3.2 6.4 0.00 0.00 0.00 65 1013.0
20260830160813 26 231 3.2 4.8 0.00 0.00 0.00 66 1013.0
20260830160310 26 231 1.6 6.4 0.00 0.00 0.00 67 1013.0
20260830155810 26 231 1.6 6.4 0.00 0.00 0.00 68 1013.0
20260830155541 26 231 0.0 0.0 0.00 0.00 0.00 68 1013.1
20260830154809 26 231 0.0 0.0 0.00 0.00 0.00 71 1013.2
20260830154308 25 231 0.0 0.0 0.00 0.00 0.00 72 1013.2
20260830153809 25 231 0.0 0.0 0.00 0.00 0.00 74 1013.2
20260830153308 25 231 0.0 0.0 0.00 0.00 0.00 77 1013.2
20260830152806 24 231 0.0 0.0 0.00 0.00 0.00 77 1013.1
20260830152548 23 231 0.0 0.0 0.00 0.00 0.00 78 1013.1
20260830151804 23 231 0.0 0.0 0.00 0.00 0.00 79 1013.1
20260830151259 23 231 0.0 0.0 0.00 0.00 0.00 81 1013.2
20260830150300 23 231 0.0 0.0 0.00 0.00 0.00 81 1013.2
20260830145755 23 231 0.0 0.0 0.00 0.00 0.00 82 1013.3
20260830145523 22 231 0.0 0.0 0.00 0.00 0.00 82 1013.3
20260830144752 22 231 0.0 1.6 0.00 0.00 0.00 82 1013.3
20260830144250 22 231 0.0 1.6 0.00 0.00 0.00 82 1013.2
20260830143748 22 231 0.0 3.2 0.00 0.00 0.00 82 1013.2
20260830143247 22 231 0.0 3.2 0.00 0.00 0.00 82 1013.2
20260830142746 22 231 0.0 1.6 0.00 0.00 0.00 82 1013.2
20260830142245 22 231 0.0 0.0 0.00 0.00 0.00 82 1013.1
20260830141743 22 231 0.0 1.6 0.00 0.00 0.00 82 1013.1
20260830141243 22 231 0.0 1.6 0.00 0.00 0.00 82 1013.1
20260830140741 22 231 0.0 0.0 0.00 0.00 0.00 82 1013.0
20260830140240 22 231 0.0 3.2 0.00 0.00 0.00 82 1013.0
20260830135740 22 231 1.6 3.2 0.00 0.00 0.00 82 1013.0
20260830135239 22 231 1.6 3.2 0.00 0.00 0.00 82 1013.0
20260830134741 22 230 0.0 3.2 0.00 0.00 0.00 82 1012.9
20260830133737 22 231 0.0 3.2 0.00 0.00 0.00 81 1012.8
20260830133237 22 231 0.0 3.2 0.00 0.00 0.00 81 1012.8
20260830132738 22 231 0.0 0.0 0.00 0.00 0.00 81 1012.7
20260830132238 22 231 0.0 0.0 0.00 0.00 0.00 81 1012.7
20260830131751 22 231 0.0 1.6 0.00 0.00 0.00 81 1012.7
20260830131237 22 231 0.0 1.6 0.00 0.00 0.00 81 1012.7
20260830131009 22 231 0.0 0.0 0.00 0.00 0.00 81 1012.6
20260830130237 22 231 0.0 0.0 0.00 0.00 0.00 81 1012.6
20260830125737 22 231 0.0 1.6 0.00 0.00 0.00 79 1012.6
20260830125236 22 231 0.0 1.6 0.00 0.00 0.00 80 1012.6
20260830124734 22 231 0.0 3.2 0.00 0.00 0.00 80 1012.5
20260830124234 22 231 0.0 3.2 0.00 0.00 0.00 80 1012.5
20260830123732 22 231 0.0 3.2 0.00 0.00 0.00 80 1012.3
20260830123229 22 231 0.0 3.2 0.00 0.00 0.00 80 1012.3
20260830122730 22 231 0.0 1.6 0.00 0.00 0.00 80 1012.2
20260830122228 22 231 0.0 1.6 0.00 0.00 0.00 79 1012.1
20260830121727 22 231 0.0 1.6 0.00 0.00 0.00 79 1012.0
20260830121226 22 231 0.0 0.0 0.00 0.00 0.00 78 1012.0
20260830120725 22 230 0.0 0.0 0.00 0.00 0.00 79 1012.0
20260830120238 22 231 0.0 0.0 0.00 0.00 0.00 79 1011.9
20260830115726 22 231 0.0 0.0 0.00 0.00 0.00 79 1012.0
20260830115224 22 231 0.0 0.0 0.00 0.00 0.00 78 1012.0
20260830114723 22 231 0.0 0.0 0.00 0.00 0.00 78 1012.0
20260830114223 22 231 0.0 1.6 0.00 0.00 0.00 78 1011.9
20260830113721 22 231 0.0 1.6 0.00 0.00 0.00 77 1012.0
20260830113219 22 231 0.0 1.6 0.00 0.00 0.00 77 1012.1
20260830112718 22 231 0.0 1.6 0.00 0.00 0.00 77 1012.1
20260830112213 22 230 0.0 3.2 0.00 0.00 0.00 77 1012.0
20260830111715 23 231 1.6 3.2 0.00 0.00 0.00 76 1012.1
20260830111214 23 231 1.6 3.2 0.00 0.00 0.00 76 1012.1
20260830110708 23 231 0.0 4.8 0.00 0.00 0.00 76 1012.0
20260830110205 23 231 1.6 4.8 0.00 0.00 0.00 76 1012.0
20260830105705 23 231 1.6 4.8 0.00 0.00 0.00 76 1012.0
20260830105204 23 231 1.6 4.8 0.00 0.00 0.00 76 1012.0
20260830104702 23 231 1.6 4.8 0.00 0.00 0.00 76 1011.9
20260830104202 23 231 1.6 4.8 0.00 0.00 0.00 76 1011.9
20260830103656 23 231 0.0 4.8 0.00 0.00 0.00 76 1011.9
20260830103154 23 231 0.0 4.8 0.00 0.00 0.00 76 1012.0
20260830102153 23 231 1.6 4.8 0.00 0.00 0.00 75 1011.9
20260830101654 23 231 3.2 6.4 0.00 0.00 0.00 75 1011.9
20260830101154 23 231 1.6 6.4 0.00 0.00 0.00 74 1011.8
20260830100706 23 231 1.6 6.4 0.00 0.00 0.00 74 1011.8
20260830100152 23 231 3.2 6.4 0.00 0.00 0.00 74 1011.7
20260830095149 23 231 4.8 6.4 0.00 0.00 0.00 72 1011.7
20260830094922 23 231 3.2 8.0 0.00 0.00 0.00 72 1011.7
20260830094151 23 231 3.2 8.0 0.00 0.00 0.00 71 1011.7
20260830093645 23 231 3.2 6.4 0.00 0.00 0.00 71 1011.7
20260830093146 23 231 3.2 8.0 0.00 0.00 0.00 71 1011.7
20260830092646 23 231 3.2 8.0 0.00 0.00 0.00 71 1011.7
20260830092145 23 231 4.8 8.0 0.00 0.00 0.00 71 1011.6
20260830091913 23 231 4.8 8.0 0.00 0.00 0.00 72 1011.6
20260830091143 23 231 4.8 8.0 0.00 0.00 0.00 72 1011.6
20260830090913 24 231 4.8 8.0 0.00 0.00 0.00 73 1011.6
20260830090141 24 231 4.8 9.7 0.00 0.00 0.00 73 1011.6
20260830085642 24 231 4.8 9.7 0.00 0.00 0.00 73 1011.5
20260830085138 24 231 4.8 9.7 0.00 0.00 0.00 73 1011.6
20260830084638 24 231 4.8 9.7 0.00 0.00 0.00 73 1011.6
20260830084138 24 231 3.2 8.0 0.00 0.00 0.00 73 1011.7
20260830083636 24 231 4.8 8.0 0.00 0.00 0.00 73 1011.7
20260830083135 24 231 4.8 8.0 0.00 0.00 0.00 73 1011.8
20260830082634 24 231 3.2 8.0 0.00 0.00 0.00 73 1011.8
20260830082133 24 231 3.2 6.4 0.00 0.00 0.00 73 1011.7
20260830081631 24 231 3.2 6.4 0.00 0.00 0.00 73 1011.7
20260830081401 25 231 3.2 6.4 0.00 0.00 0.00 72 1011.7
20260830080631 25 231 3.2 6.4 0.00 0.00 0.00 72 1011.8
20260830080129 25 231 3.2 4.8 0.00 0.00 0.00 72 1011.7
20260830075629 25 231 3.2 6.4 0.00 0.00 0.00 72 1011.8
20260830075129 25 231 3.2 6.4 0.00 0.00 0.00 71 1011.7
20260830074627 25 231 3.2 6.4 0.00 0.00 0.00 71 1011.8
20260830074126 25 231 3.2 4.8 0.00 0.00 0.00 71 1011.8
20260830073619 25 231 1.6 4.8 0.00 0.00 0.00 70 1011.8
20260830073121 25 231 1.6 4.8 0.00 0.00 0.00 70 1011.9
20260830072620 25 231 3.2 6.4 0.00 0.00 0.00 70 1011.9
20260830072119 25 231 3.2 6.4 0.00 0.00 0.00 70 1011.9
20260830071849 25 231 3.2 6.4 0.00 0.00 0.00 70 1011.9
20260830071402 25 231 3.2 6.4 0.00 0.00 0.00 69 1011.7
20260830070612 25 231 3.2 6.4 0.00 0.00 0.00 69 1011.7
20260830070125 25 231 1.6 6.4 0.00 0.00 0.00 69 1011.7
20260830065846 25 231 1.6 4.8 0.00 0.00 0.00 69 1011.7
20260830065111 25 231 3.2 4.8 0.00 0.00 0.00 68 1011.6
20260830064842 25 231 3.2 4.8 0.00 0.00 0.00 68 1011.7
20260830064341 26 231 3.2 6.4 0.00 0.00 0.00 68 1011.7
20260830063853 26 231 3.2 6.4 0.00 0.00 0.00 69 1011.7
20260830063109 25 231 3.2 6.4 0.00 0.00 0.00 69 1011.7
20260830062610 25 231 3.2 4.8 0.00 0.00 0.00 69 1011.7
20260830062110 25 231 3.2 4.8 0.00 0.00 0.00 69 1011.6
20260830061608 26 231 3.2 6.4 0.00 0.00 0.00 68 1011.7
20260830061108 26 231 3.2 6.4 0.00 0.00 0.00 68 1011.8
20260830060606 26 231 3.2 6.4 0.00 0.00 0.00 68 1011.7
20260830060117 26 231 3.2 6.4 0.00 0.00 0.00 68 1011.6
20260830055837 26 231 3.2 6.4 0.00 0.00 0.00 67 1011.6
20260830055333 26 231 3.2 4.8 0.00 0.00 0.00 67 1011.7
20260830054602 26 231 3.2 4.8 0.00 0.00 0.00 67 1011.6
20260830054103 26 231 3.2 6.4 0.00 0.00 0.00 66 1011.7
20260830053601 26 231 3.2 6.4 0.00 0.00 0.00 66 1011.7
20260830053330 26 231 3.2 6.4 0.00 0.00 0.00 66 1011.6
20260830052558 26 231 1.6 6.4 0.00 0.00 0.00 65 1011.6
20260830052056 26 231 1.6 4.8 0.00 0.00 0.00 65 1011.7
20260830051557 26 231 3.2 6.4 0.00 0.00 0.00 64 1011.6
20260830051054 26 231 4.8 8.0 0.00 0.00 0.00 64 1011.5
20260830050551 26 231 4.8 8.0 0.00 0.00 0.00 64 1011.5
20260830050336 26 231 4.8 8.0 0.00 0.00 0.00 63 1011.5
20260830045549 27 231 3.2 6.4 0.00 0.00 0.00 63 1011.5
20260830045048 27 231 4.8 9.7 0.00 0.00 0.00 62 1011.6
20260830044547 27 231 4.8 9.7 0.00 0.00 0.00 62 1011.6
20260830044046 27 231 3.2 8.0 0.00 0.00 0.00 61 1011.5
20260830043547 27 231 4.8 9.7 0.00 0.00 0.00 60 1011.5
20260830043048 27 231 4.8 11.3 0.00 0.00 0.00 60 1011.4
20260830042544 27 231 6.4 11.3 0.00 0.00 0.00 59 1011.4
20260830042045 27 230 6.4 11.3 0.00 0.00 0.00 59 1011.3
20260830041545 28 231 4.8 9.7 0.00 0.00 0.00 58 1011.3
20260830041042 28 231 6.4 12.9 0.00 0.00 0.00 57 1011.2
20260830040543 28 231 6.4 12.9 0.00 0.00 0.00 57 1011.2
20260830040053 28 233 4.8 9.7 0.00 0.00 0.00 56 1011.2
20260830035540 28 234 6.4 9.7 0.00 0.00 0.00 55 1011.1
20260830035041 28 234 6.4 9.7 0.00 0.00 0.00 54 1011.1
20260830034541 28 235 6.4 9.7 0.00 0.00 0.00 54 1011.0
20260830034040 28 236 6.4 12.9 0.00 0.00 0.00 53 1010.9
20260830033541 28 235 6.4 12.9 0.00 0.00 0.00 53 1010.8
20260830033038 28 229 6.4 12.9 0.00 0.00 0.00 53 1010.9
20260830032538 28 240 4.8 11.3 0.00 0.00 0.00 52 1010.9
20260830032038 28 251 6.4 14.5 0.00 0.00 0.00 52 1010.8
20260830031810 29 248 8.0 14.5 0.00 0.00 0.00 52 1010.7
20260830031040 29 237 8.0 14.5 0.00 0.00 0.00 51 1010.6
20260830030540 29 246 8.0 16.1 0.00 0.00 0.00 51 1010.5
20260830030037 29 226 9.7 16.1 0.00 0.00 0.00 51 1010.4
20260830025812 29 216 11.3 19.3 0.00 0.00 0.00 51 1010.4
20260830025307 30 227 11.3 19.3 0.00 0.00 0.00 50 1010.4
20260830024537 30 221 11.3 22.5 0.00 0.00 0.00 50 1010.3
20260830024037 30 227 12.9 22.5 0.00 0.00 0.00 50 1010.2
20260830023534 30 220 11.3 22.5 0.00 0.00 0.00 49 1010.2
20260830023306 30 226 11.3 19.3 0.00 0.00 0.00 49 1010.2
20260830022806 31 225 11.3 20.9 0.00 0.00 0.00 48 1010.1
20260830022033 31 222 11.3 20.9 0.00 0.00 0.00 46 1010.1
20260830021532 31 252 9.7 20.9 0.00 0.00 0.00 44 1010.1
20260830021044 32 218 9.7 19.3 0.00 0.00 0.00 43 1010.0
20260830020300 32 222 12.9 19.3 0.00 0.00 0.00 41 1010.0
20260830015525 32 229 12.9 19.3 0.00 0.00 0.00 40 1010.1
20260830015026 32 230 11.3 19.3 0.00 0.00 0.00 39 1010.1